Powrót do katalogu

CZ-6A DEB

AktywnySSO
NORAD 56276·DEBRIS·🇨🇳 China

Wystrzelony Nov 11, 2022 z Taiyuan Satellite Launch Center

Loading…

Następne Przeloty (najbliższe 24 godziny)

TLE

ŚwieżeSource: Space-Track

Epoka: Sep 14, 2026, 00:04 UTC

1 56276U 22151ACU 26257.00330161  .00000492  00000-0  24740-3 0  9998
2 56276  98.7770 272.3261 0010075  61.4811 298.7379 14.20945169180839

Śledź CZ-6A DEB w czasie rzeczywistym z AllMySat

Download on the App Store